Granada, Spain

8:41 PM CEST on March 30, 2017 (GMT +0200)
Granada

Weather History for LEGR - July, 2013

Change the Weather History Date:

Wednesday, July 17, 2013

  Actual Average Record
Temperature  
Mean Temperature 78 °F -  
Max Temperature 97 °F 91 °F 108 °F (2014)
Min Temperature 59 °F 58 °F 53 °F (2001)
Cooling Degree Days 13    
Growing Degree Days 28 (Base 50)    
Moisture  
Dew Point 48 °F    
Average Humidity 32    
Maximum Humidity 63    
Minimum Humidity 9    
Precipitation  
Precipitation 0.00 in - - ()
Sea Level Pressure  
Sea Level Pressure 30.11 in    
Wind  
Wind Speed 3 mph ()    
Max Wind Speed 18 mph    
Max Gust Speed 16 mph    
Visibility 10.9 miles    
Events      
Averages and records for this station are not official NWS values.
T = Trace of Precipitation, MM = Missing Value Source: Averaged Metar Reports

Daily Weather History Graph

Daily Weather History Graph

Search for Another Location

Airport or City:

Trip Planner

Search our weather history database for the weather conditions in past years. The results will help you decide how hot, cold, wet, or windy it might be!

Date:

Astronomy

Jul. 17, 2013 Rise Set
Actual Time 7:08 AM CEST 9:33 PM CEST
Civil Twilight 6:38 AM CEST 10:03 PM CEST
Nautical Twilight 6:01 AM CEST 10:40 PM CEST
Astronomical Twilight 5:20 AM CEST 11:21 PM CEST
Moon 4:08 PM CEST (7/17) 2:02 AM CEST (7/17)
Length of Visible Light 15h 25m
Length of Day
14h 25m
Waxing Gibbous, 64% of the Moon is Illuminated
Jul 17
Waxing Gibbous
Jul 22
Full
Jul 29
Last Quarter
Aug 6
New
Aug 14
First Quarter

Hourly Weather History & Observations

Time (CEST) Temp. Heat Index Dew Point Humidity Pressure Visibility Wind Dir Wind Speed Gust Speed Precip Events Conditions
12:00 AM 73 °F - 49 °F 31% 30.09 in 19 mi NW 4.5 mph - -  
1:00 AM 71 °F - 47 °F 32% 30.11 in 19 mi Calm Calm - -  
2:00 AM 68 °F - 47 °F 36% 30.13 in 17 mi Calm Calm - -  
3:00 AM 66 °F - 45 °F 35% 30.12 in 19 mi SW 1.2 mph - -  
4:00 AM 64 °F - 44 °F 37% 30.13 in 17 mi Calm Calm - -  
5:00 AM 63 °F - 45 °F 41% 30.13 in 19 mi Calm Calm - -  
6:00 AM 62 °F - 46 °F 44% 30.13 in 19 mi WSW 1.2 mph - -  
6:00 AM 62.6 °F - 46.4 °F 55% 30.15 in - Variable 1.2 mph - N/A   Clear
6:30 AM 60.8 °F - 46.4 °F 59% 30.15 in - Calm Calm - N/A   Clear
7:00 AM 60 °F - 46 °F 48% 30.14 in 12 mi Calm Calm - -  
7:00 AM 60.8 °F - 48.2 °F 63% 30.15 in - Calm Calm - N/A   Clear
7:30 AM 60.8 °F - 48.2 °F 63% 30.18 in - Variable 1.2 mph - N/A   Clear
8:00 AM 62 °F - 46 °F 46% 30.14 in 12 mi Calm Calm - -  
8:00 AM 62.6 °F - 48.2 °F 59% 30.18 in - Calm Calm - N/A   Clear
8:30 AM 66.2 °F - 48.2 °F 52% 30.18 in - Calm Calm - N/A   Clear
9:00 AM 69 °F - 49 °F 38% 30.13 in 6 mi West 1.2 mph - -   Scattered Clouds
9:00 AM 68.0 °F - 51.8 °F 56% 30.18 in 6.2 mi Variable 1.2 mph - N/A   Partly Cloudy
9:30 AM 69.8 °F - 53.6 °F 56% 30.18 in 6.2 mi Variable 1.2 mph - N/A   Partly Cloudy
10:00 AM 72 °F - 53 °F 41% 30.12 in 7 mi Calm Calm - -  
10:00 AM 73.4 °F - 55.4 °F 53% 30.18 in - Calm Calm - N/A   Clear
10:30 AM 77.0 °F - 55.4 °F 47% 30.18 in - Calm Calm - N/A   Clear
11:00 AM 79 °F - 50 °F 26% 30.09 in 6 mi Calm Calm - -  
11:00 AM 78.8 °F - 51.8 °F 39% 30.18 in - Calm Calm - N/A   Clear
11:30 AM 80.6 °F 80.3 °F 53.6 °F 39% 30.18 in - Variable 1.2 mph - N/A   Clear
12:00 PM 83 °F - 49 °F 20% 30.07 in 14 mi North 2.3 mph - -  
12:00 PM 82.4 °F - 50.0 °F 32% 30.18 in - Variable 1.2 mph - N/A   Clear
12:30 PM 86.0 °F - 50.0 °F 29% 30.18 in - Calm Calm - N/A   Clear
1:00 PM 88 °F - 49 °F 16% 30.04 in 15 mi NW 2.3 mph - -  
1:00 PM 87.8 °F - 50.0 °F 27% 30.15 in - Variable 2.3 mph - N/A   Clear
1:30 PM 89.6 °F - 48.2 °F 24% 30.15 in 6.2 mi Variable 3.5 mph - N/A   Partly Cloudy
2:00 PM 91 °F - 49 °F 15% 30.01 in 19 mi NNW 6.7 mph - -   Scattered Clouds
2:00 PM 91.4 °F - 48.2 °F 23% 30.15 in 6.2 mi Variable 3.5 mph - N/A   Partly Cloudy
2:30 PM 91.4 °F - 48.2 °F 23% 30.12 in 6.2 mi Variable 5.8 mph - N/A   Partly Cloudy
3:00 PM 94 °F - 48 °F 12% 29.98 in 19 mi WNW 3.5 mph - -   Scattered Clouds
3:00 PM 93.2 °F - 46.4 °F 20% 30.12 in 6.2 mi NNW 4.6 mph - N/A   Partly Cloudy
3:30 PM 93.2 °F - 46.4 °F 20% 30.12 in 6.2 mi Variable 3.5 mph 16.1 mph N/A   Partly Cloudy
4:00 PM 97 °F - 48 °F 11% 29.95 in 19 mi WSW 6.7 mph - -  
4:00 PM 95.0 °F - 48.2 °F 20% 30.09 in 6.2 mi Variable 3.5 mph - N/A   Partly Cloudy
4:30 PM 95.0 °F - 48.2 °F 20% 30.09 in 6.2 mi WNW 5.8 mph - N/A   Partly Cloudy
5:00 PM 96.8 °F - 46.4 °F 18% 30.09 in 6.2 mi Variable 8.1 mph - N/A   Partly Cloudy
5:30 PM 96.8 °F - 46.4 °F 18% 30.06 in 6.2 mi WNW 8.1 mph - N/A   Partly Cloudy
6:00 PM 97 °F - 43 °F 9% 29.92 in 18 mi West 17.9 mph - -  
6:00 PM 96.8 °F - 42.8 °F 16% 30.06 in 6.2 mi West 6.9 mph - N/A   Partly Cloudy
6:30 PM 96.8 °F - 42.8 °F 16% 30.06 in 6.2 mi WSW 4.6 mph - N/A   Partly Cloudy
7:00 PM 95.0 °F - 46.4 °F 19% 30.06 in 6.2 mi WSW 13.8 mph - N/A   Partly Cloudy
7:30 PM 93.2 °F - 46.4 °F 20% 30.06 in 6.2 mi SW 13.8 mph - N/A   Partly Cloudy
8:00 PM 91 °F - 47 °F 13% 29.95 in 19 mi SW 12.7 mph - -   Scattered Clouds
8:00 PM 91.4 °F - 48.2 °F 23% 30.06 in 6.2 mi SW 12.7 mph - N/A   Partly Cloudy
8:30 PM 89.6 °F - 48.2 °F 24% 30.09 in 6.2 mi SW 12.7 mph - N/A   Partly Cloudy
9:00 PM 87.8 °F - 46.4 °F 24% 30.09 in 6.2 mi SSW 8.1 mph - N/A   Partly Cloudy
9:30 PM 86.0 °F - 46.4 °F 25% 30.09 in 6.2 mi South 6.9 mph - N/A   Partly Cloudy
10:00 PM 82.4 °F - 44.6 °F 26% 30.12 in - SSW 6.9 mph - N/A   Clear
10:30 PM 80.6 °F - 46.4 °F 30% 30.12 in - SSW 4.6 mph - N/A   Clear
11:00 PM 77.0 °F - 50.0 °F 39% 30.12 in - Variable 1.2 mph - N/A   Clear
11:30 PM 75.2 °F - 50.0 °F 41% 30.15 in - Variable 1.2 mph - N/A   Clear